Weather History for KGRR - October, 2012

Change the Weather History Date:

Tuesday, October 9, 2012

  Actual Average Record
Temperature  
Mean Temperature 54 °F 53 °F  
Max Temperature 64 °F 63 °F 84 °F (1939)
Min Temperature 44 °F 44 °F 23 °F (1989)
Degree Days  
Heating Degree Days 11 12  
Month to date heating degree days 108 96  
Since 1 July heating degree days 242 248  
Cooling Degree Days 0 0  
Month to date cooling degree days 2 4  
Year to date cooling degree days 1037 696  
Growing Degree Days 2 (Base 50)    
Moisture  
Dew Point 36 °F    
Average Humidity 58    
Maximum Humidity 77    
Minimum Humidity 39    
Precipitation  
Precipitation 0.12 in 0.11 in 2.54 in (1958)
Month to date precipitation 0.64 0.99  
Year to date precipitation 24.83 29.99  
Snow  
Snow 0.00 in 0.00 in T in (1945)
Month to date snowfall 0.0 0.0  
Since 1 July snowfall 0.0 0.0  
Since 1 September snowfall 0.0 0.0  
Snow Depth 0.00 in    
Sea Level Pressure  
Sea Level Pressure 29.92 in    
Wind  
Wind Speed 15 mph (SSW)    
Max Wind Speed 25 mph    
Max Gust Speed 36 mph    
Visibility 10 miles    
Events Rain    
T = Trace of Precipitation, MM = Missing Value Source: NWS Daily Summary

Daily Weather History Graph

Daily Weather History Graph

Search for Another Location

Airport or City:

Trip Planner

Search our weather history database for the weather conditions in past years. The results will help you decide how hot, cold, wet, or windy it might be!

Date:

Astronomy

Oct. 09, 2012 Rise Set
Actual Time 7:49 AM EDT 7:08 PM EDT
Civil Twilight 7:20 AM EDT 7:37 PM EDT
Nautical Twilight 6:47 AM EDT 8:09 PM EDT
Astronomical Twilight 6:14 AM EDT 8:42 PM EDT
Moon 1:16 AM EDT (10/9) 3:43 PM EDT (10/9)
Length of Visible Light 12h 16m
Length of Day
11h 19m
Last Quarter, 37% of the Moon is Illuminated
Oct 9
Last Quarter
Oct 15
New
Oct 21
First Quarter
Oct 29
Full
Nov 6
Last Quarter

Hourly Weather History & Observations

Time (EDT) Temp. Windchill Dew Point Humidity Pressure Visibility Wind Dir Wind Speed Gust Speed Precip Events Conditions
12:53 AM 46.9 °F - 28.0 °F 48% 30.05 in 10.0 mi South 10.4 mph - N/A   Clear
1:53 AM 46.0 °F 41.0 °F 28.0 °F 50% 30.04 in 10.0 mi South 10.4 mph - N/A   Clear
2:53 AM 45.0 °F 39.3 °F 28.9 °F 53% 30.03 in 10.0 mi South 11.5 mph - N/A   Clear
4:53 AM 45.0 °F 38.9 °F 30.0 °F 56% 30.01 in 10.0 mi South 12.7 mph - N/A   Clear
5:53 AM 45.0 °F 38.9 °F 30.9 °F 58% 30.01 in 10.0 mi South 12.7 mph - N/A   Mostly Cloudy
6:53 AM 45.0 °F 39.7 °F 32.0 °F 60% 30.01 in 10.0 mi South 10.4 mph - N/A   Overcast
7:53 AM 44.1 °F 37.4 °F 32.0 °F 63% 30.00 in 10.0 mi South 13.8 mph - N/A   Mostly Cloudy
8:53 AM 45.0 °F 38.5 °F 33.1 °F 63% 30.00 in 10.0 mi South 13.8 mph - N/A   Mostly Cloudy
9:53 AM 50.0 °F - 35.1 °F 57% 29.99 in 10.0 mi South 13.8 mph - N/A   Mostly Cloudy
10:53 AM 52.0 °F - 36.0 °F 54% 29.96 in 10.0 mi South 15.0 mph 23.0 mph N/A   Mostly Cloudy
11:53 AM 55.9 °F - 36.0 °F 47% 29.96 in 10.0 mi SSW 18.4 mph 26.5 mph N/A   Mostly Cloudy
12:53 PM 60.1 °F - 37.0 °F 42% 29.93 in 10.0 mi SSW 18.4 mph 29.9 mph N/A   Mostly Cloudy
1:53 PM 63.0 °F - 37.0 °F 38% 29.89 in 10.0 mi South 19.6 mph 31.1 mph N/A   Mostly Cloudy
2:53 PM 63.0 °F - 37.0 °F 38% 29.87 in 10.0 mi SSW 19.6 mph 28.8 mph N/A   Overcast
3:53 PM 63.0 °F - 37.9 °F 40% 29.86 in 10.0 mi South 21.9 mph 27.6 mph N/A   Overcast
4:53 PM 62.1 °F - 37.9 °F 41% 29.86 in 10.0 mi SSW 18.4 mph 25.3 mph N/A   Overcast
5:53 PM 61.0 °F - 37.9 °F 42% 29.84 in 10.0 mi South 15.0 mph - N/A   Overcast
6:53 PM 60.1 °F - 37.9 °F 44% 29.82 in 10.0 mi South 12.7 mph 20.7 mph N/A   Overcast
7:53 PM 59.0 °F - 37.9 °F 46% 29.83 in 10.0 mi South 13.8 mph - N/A   Overcast
8:53 PM 57.9 °F - 39.0 °F 49% 29.82 in 10.0 mi South 13.8 mph - N/A   Overcast
9:53 PM 57.9 °F - 39.0 °F 49% 29.78 in 10.0 mi South 15.0 mph 23.0 mph N/A   Mostly Cloudy
10:36 PM 57.2 °F - 39.2 °F 51% 29.79 in 10.0 mi West 19.6 mph 23.0 mph N/A   Overcast
10:53 PM 51.1 °F - 44.1 °F 77% 29.82 in 9.0 mi NW 23.0 mph 27.6 mph N/A   Overcast
11:17 PM 48.2 °F - 42.8 °F 82% 29.82 in 10.0 mi NW 18.4 mph 28.8 mph 0.00 in Rain Light Rain
11:53 PM 46.9 °F - 43.0 °F 86% 29.85 in 6.0 mi NW 12.7 mph - 0.01 in Rain Rain